Location: Most
(50.5133°N, 13.6207°E)
Time: 09:00:58
(UTC+01:00)

Oscar 11 - Pass Details

Date: 01 December 2021
Orbit: 611 x 625 km, 97.6° (Epoch: 26 January)

Event Time Altitude Azimuth Distance (km) Brightness Sun altitude
Rises 05:03:43 0° 19° (NNE) 2,922 10.7 -24.6°
Reaches altitude 10° 05:06:04 10° 28° (NNE) 2,009 9.9 -24.3°
Maximum altitude 05:10:09 38° 97° (E) 955 8.5 -23.6°
Drops below altitude 10° 05:14:12 10° 166° (SSE) 1,986 9.9 -23.0°
Sets 05:16:30 0° 174° (S) 2,885 10.7 -22.6°
